Location: Champseau
(45.8333°N, 1.7667°E)
Time: 17:24:36
(UTC+00:00)

YUBILEINY - Visible Passes

Search period start: 03 December 2021 00:00
Search period end: 13 December 2021 00:00
Orbit: 1478 x 1508 km, 82.5° (Epoch: 03 December)

Date Brightness Start Highest point End Pass type
(mag) Time Alt. Az. Time Alt. Az. Time Alt. Az.
03 Dec ? 17:33:46 10° WSW 17:40:47 26° WNW 17:47:55 10° N visible
04 Dec ? 16:42:16 10° SW 16:50:30 44° WNW 16:58:51 10° N visible
05 Dec ? 17:53:36 10° W 17:59:10 18° NW 18:04:48 10° NNW visible
06 Dec ? 17:01:05 10° SW 17:08:34 31° WNW 17:16:08 10° N visible
07 Dec ? 18:14:50 10° WNW 18:17:48 12° NW 18:20:47 10° NNW visible
08 Dec ? 17:20:34 10° WSW 17:26:51 21° WNW 17:33:12 10° N visible
09 Dec ? 16:28:32 10° SW 16:36:23 36° WNW 16:44:21 10° N visible
10 Dec ? 17:41:03 10° W 17:45:23 14° NW 17:49:44 10° NNW visible
11 Dec ? 16:47:43 10° WSW 16:54:35 25° WNW 17:01:31 10° N visible
